ARG2438 LICR-LGKR

Flight info

Callsign ARG2438
Flight time 0h 31m
Altitude 18000
Route RCA L137 CDC/N0384F170 L869 GEMVI/N0377F160 DCT LATAN
Aircraft B737/M-SDE2E3FGHIRWXY/LB1

Departure

Time 2026-04-23 01:09
Airport Reggio Calabria Airport (LICR)

Arrival

Time 2026-04-23 01:41
Airport Corfu Ioannis Kapodistrias International Airport (LGKR)
Time Latitude Longitude Altitude Speed Heading
2026-04-23 00:43 38.07356 15.65304 49 ft 0 kts 121°
2026-04-23 00:50 38.07363 15.65285 47 ft 4 kts 81°
2026-04-23 00:50 38.07352 15.65256 48 ft 3 kts 63°
2026-04-23 00:50 38.07340 15.65226 47 ft 4 kts 62°
2026-04-23 00:50 38.07328 15.65196 48 ft 4 kts 62°
2026-04-23 00:51 38.07316 15.65166 48 ft 4 kts 62°
2026-04-23 00:51 38.07303 15.65136 48 ft 4 kts 61°
2026-04-23 00:51 38.07289 15.65106 47 ft 4 kts 58°
2026-04-23 00:51 38.07274 15.65077 46 ft 4 kts 52°
2026-04-23 00:52 38.07268 15.65068 46 ft 1 kts 50°
2026-04-23 00:53 38.07273 15.65072 46 ft 3 kts 34°
2026-04-23 00:54 38.07300 15.65067 47 ft 5 kts 332°
2026-04-23 00:54 38.07314 15.65057 48 ft 0 kts 331°
2026-04-23 01:06 38.07316 15.65056 48 ft 2 kts 330°
2026-04-23 01:06 38.07340 15.65038 49 ft 7 kts 329°
2026-04-23 01:06 38.07406 15.64988 52 ft 13 kts 329°
2026-04-23 01:07 38.07488 15.64927 55 ft 14 kts 332°
2026-04-23 01:07 38.07580 15.64864 58 ft 16 kts 331°
2026-04-23 01:07 38.07678 15.64797 61 ft 16 kts 332°
2026-04-23 01:07 38.07782 15.64729 65 ft 17 kts 332°
2026-04-23 01:08 38.07880 15.64646 70 ft 17 kts 316°
2026-04-23 01:08 38.07921 15.64618 73 ft 1 kts 34°
2026-04-23 01:08 38.07918 15.64631 72 ft 3 kts 112°
2026-04-23 01:08 38.07901 15.64648 71 ft 0 kts 153°
2026-04-23 01:09 38.07787 15.64721 65 ft 57 kts 152°
2026-04-23 01:09 38.07178 15.65118 43 ft 136 kts 153°
2026-04-23 01:09 38.06177 15.65727 385 ft 170 kts 155°
2026-04-23 01:09 38.05057 15.66226 1244 ft 177 kts 173°
2026-04-23 01:10 38.03784 15.66010 1924 ft 193 kts 206°
2026-04-23 01:10 38.02781 15.65014 3209 ft 172 kts 230°
2026-04-23 01:10 38.02107 15.63953 4652 ft 146 kts 229°
2026-04-23 01:10 38.01261 15.63067 5208 ft 175 kts 227°
2026-04-23 01:11 38.00723 15.61576 5556 ft 200 kts 259°
2026-04-23 01:11 37.99991 15.60004 6111 ft 221 kts 218°
2026-04-23 01:11 37.98535 15.59350 7018 ft 225 kts 191°
2026-04-23 01:11 37.96999 15.58958 7976 ft 227 kts 197°
2026-04-23 01:12 37.95492 15.58424 8875 ft 228 kts 202°
2026-04-23 01:12 37.93970 15.57751 9774 ft 232 kts 206°
2026-04-23 01:12 37.92411 15.56956 10171 ft 259 kts 208°
2026-04-23 01:12 37.90658 15.55994 10439 ft 290 kts 209°
2026-04-23 01:13 37.88716 15.54900 10662 ft 320 kts 209°
2026-04-23 01:13 37.86553 15.53785 10906 ft 352 kts 199°
2026-04-23 01:13 37.84037 15.53603 11537 ft 375 kts 176°
2026-04-23 01:13 37.81521 15.54623 12412 ft 388 kts 156°
2026-04-23 01:14 37.79342 15.56720 13224 ft 403 kts 136°
2026-04-23 01:14 37.77745 15.59678 13974 ft 414 kts 116°
2026-04-23 01:14 37.76889 15.63172 14754 ft 421 kts 97°
2026-04-23 01:14 37.76896 15.66867 15570 ft 422 kts 77°
2026-04-23 01:15 37.77861 15.70329 16405 ft 417 kts 54°
2026-04-23 01:15 37.79709 15.73009 17208 ft 406 kts 31°
2026-04-23 01:15 37.82186 15.74559 18011 ft 392 kts
2026-04-23 01:15 37.84846 15.74722 18788 ft 379 kts 345°
2026-04-23 01:16 37.87347 15.73771 19543 ft 375 kts 335°
2026-04-23 01:16 37.89827 15.72647 20178 ft 382 kts 336°
2026-04-23 01:16 37.92358 15.71535 20797 ft 387 kts 336°
2026-04-23 01:16 37.94922 15.70440 21449 ft 391 kts 336°
2026-04-23 01:17 37.97515 15.69351 22083 ft 394 kts 337°
2026-04-23 01:17 38.00134 15.68260 22687 ft 398 kts 337°
2026-04-23 01:17 38.02781 15.67159 23245 ft 402 kts 337°
2026-04-23 01:17 38.05449 15.66047 23854 ft 405 kts 336°
2026-04-23 01:18 38.08185 15.65110 24402 ft 415 kts 347°
2026-04-23 01:18 38.11121 15.65234 24925 ft 433 kts
2026-04-23 01:18 38.14015 15.66487 25442 ft 450 kts 21°
2026-04-23 01:18 38.16601 15.68850 25903 ft 469 kts 39°
2026-04-23 01:19 38.18580 15.72228 26336 ft 487 kts 59°
2026-04-23 01:19 38.19710 15.76339 26826 ft 496 kts 71°
2026-04-23 01:19 38.21057 15.80319 27231 ft 489 kts 52°
2026-04-23 01:19 38.23297 15.83488 27629 ft 478 kts 34°
2026-04-23 01:20 38.25949 15.86009 28040 ft 476 kts 28°
2026-04-23 01:20 38.28697 15.88395 28406 ft 479 kts 28°
2026-04-23 01:20 38.31445 15.90827 28729 ft 483 kts 29°
2026-04-23 01:20 38.34172 15.93372 29049 ft 488 kts 31°
2026-04-23 01:21 38.36834 15.95975 29509 ft 488 kts 32°
2026-04-23 01:21 38.39499 15.98652 30047 ft 486 kts 32°
2026-04-23 01:21 38.42147 16.01329 30564 ft 484 kts 32°
2026-04-23 01:21 38.44786 16.03985 31030 ft 483 kts 32°
2026-04-23 01:22 38.47422 16.06644 31469 ft 483 kts 32°
2026-04-23 01:22 38.50023 16.09376 31921 ft 483 kts 33°
2026-04-23 01:22 38.52609 16.12153 32033 ft 488 kts 33°
2026-04-23 01:22 38.55199 16.14954 32042 ft 487 kts 34°
2026-04-23 01:23 38.60352 16.20518 32041 ft 483 kts 33°
2026-04-23 01:23 38.65486 16.26026 32051 ft 481 kts 33°
2026-04-23 01:24 38.70609 16.31524 32052 ft 481 kts 33°
2026-04-23 01:24 38.75363 16.37655 32047 ft 494 kts 47°
2026-04-23 01:25 38.78700 16.45449 32064 ft 504 kts 62°
2026-04-23 01:25 38.81371 16.53770 32046 ft 505 kts 63°
2026-04-23 01:26 38.84052 16.61817 32054 ft 504 kts 62°
2026-04-23 01:26 38.86847 16.70059 32055 ft 504 kts 62°
2026-04-23 01:27 38.89617 16.78318 32066 ft 504 kts 62°
2026-04-23 01:27 38.92385 16.86605 32071 ft 504 kts 62°
2026-04-23 01:28 38.95147 16.94892 32074 ft 505 kts 62°
2026-04-23 01:28 38.97908 17.03192 32074 ft 506 kts 62°
2026-04-23 01:29 39.00307 17.11712 32070 ft 513 kts 73°
2026-04-23 01:29 39.01759 17.20657 32072 ft 514 kts 75°
2026-04-23 01:30 39.05470 17.44298 32067 ft 515 kts 75°
2026-04-23 01:30 39.11296 17.80460 32072 ft 516 kts 75°
2026-04-23 01:31 39.16915 18.16838 32058 ft 518 kts 76°
2026-04-23 01:31 39.19696 18.35131 30389 ft 521 kts 76°
2026-04-23 01:31 39.22474 18.53613 25664 ft 527 kts 75°
2026-04-23 01:32 39.25185 18.71926 21387 ft 506 kts 75°
2026-04-23 01:32 39.27721 18.89199 17788 ft 475 kts 76°
2026-04-23 01:32 39.30096 19.05488 14227 ft 448 kts 77°
2026-04-23 01:32 39.32275 19.20647 10872 ft 403 kts 77°
2026-04-23 01:33 39.34096 19.33454 9123 ft 322 kts 77°
2026-04-23 01:33 39.35597 19.43971 8008 ft 281 kts 77°
2026-04-23 01:33 39.36587 19.50952 7299 ft 269 kts 78°
2026-04-23 01:33 39.36920 19.53303 7111 ft 257 kts 78°
2026-04-23 01:34 39.37225 19.55475 6976 ft 234 kts 78°
2026-04-23 01:34 39.37504 19.57466 6856 ft 217 kts 78°
2026-04-23 01:34 39.37765 19.59326 6736 ft 203 kts 78°
2026-04-23 01:34 39.38010 19.61063 6566 ft 192 kts 78°
2026-04-23 01:35 39.38256 19.62810 6141 ft 197 kts 78°
2026-04-23 01:35 39.38500 19.64544 5829 ft 195 kts 78°
2026-04-23 01:35 39.38737 19.66246 5569 ft 190 kts 78°
2026-04-23 01:35 39.38973 19.67950 5343 ft 183 kts 78°
2026-04-23 01:36 39.39780 19.73904 4754 ft 157 kts 83°
2026-04-23 01:36 39.39827 19.79146 3765 ft 138 kts 87°
2026-04-23 01:36 39.39875 19.83906 3001 ft 129 kts 87°
2026-04-23 01:36 39.40039 19.88457 2865 ft 126 kts 72°
2026-04-23 01:37 39.41131 19.92963 3016 ft 138 kts 71°
2026-04-23 01:37 39.42537 19.97630 2820 ft 143 kts 30°
2026-04-23 01:37 39.46130 19.96361 2440 ft 138 kts 343°
2026-04-23 01:37 39.48576 19.95451 2052 ft 138 kts 343°
2026-04-23 01:38 39.50003 19.94919 1817 ft 132 kts 342°
2026-04-23 01:38 39.50859 19.94600 1713 ft 125 kts 342°
2026-04-23 01:38 39.51690 19.94292 1711 ft 126 kts 343°
2026-04-23 01:38 39.52569 19.93969 1421 ft 128 kts 343°
2026-04-23 01:39 39.53420 19.93651 1176 ft 129 kts 341°
2026-04-23 01:39 39.54270 19.93288 923 ft 128 kts 339°
2026-04-23 01:39 39.55094 19.92878 810 ft 126 kts 336°
2026-04-23 01:39 39.55904 19.92448 667 ft 128 kts 336°
2026-04-23 01:40 39.56764 19.92106 523 ft 128 kts 344°
2026-04-23 01:40 39.57645 19.91862 353 ft 132 kts 347°
2026-04-23 01:40 39.58556 19.91636 169 ft 134 kts 348°
2026-04-23 01:40 39.59428 19.91406 19 ft 122 kts 348°
2026-04-23 01:41 39.60105 19.91233 15 ft 69 kts 349°
2026-04-23 01:41 39.60394 19.91161 13 ft 17 kts 351°
2026-04-23 01:41 39.60500 19.91154 13 ft 11 kts
2026-04-23 01:41 39.60566 19.91183 13 ft 8 kts 24°
2026-04-23 01:42 39.60615 19.91208 15 ft 8 kts 18°
2026-04-23 01:42 39.60644 19.91219 14 ft 0 kts 13°
2026-04-23 01:42 39.60650 19.91220 14 ft 2 kts
2026-04-23 01:43 39.60681 19.91219 13 ft 6 kts 352°
2026-04-23 01:43 39.60726 19.91206 13 ft 2 kts 347°
2026-04-23 01:43 39.60740 19.91202 16 ft 2 kts 347°
2026-04-23 01:43 39.60753 19.91199 13 ft 2 kts 351°
2026-04-23 01:44 39.60770 19.91195 13 ft 3 kts 350°
2026-04-23 01:44 39.60798 19.91188 13 ft 5 kts 349°
2026-04-23 01:44 39.60829 19.91209 15 ft 6 kts 57°
2026-04-23 01:44 39.60836 19.91234 14 ft 1 kts 73°
2026-04-23 01:45 39.60837 19.91238 14 ft 0 kts 74°